Погода в Хюэ

Вьетнам     16°27′41″N   107°35′30″E
темп.,
°C
ветер,
м/с
пор.,
м/с
влажн.,
%
обл.,
%
осадки,
мм/ч
давл.,
гПа
погр.,
м
14 мая, пт
пт1401:00+25ююз118196 0.0 100528
04:00+24ююв117822 0.0 100526
07:00+29ююв226212 0.0 1006201
10:00+35св3243100 0.0 10061163
13:00+34св545092 0.0 1004817
16:00+25зюз4696100 8.6 1004164
19:00+25ююз71390100 11.1 1006342
22:00+24ююв348898 0.0 100783
15 мая, сб
сб1501:00+24ю118737 0.0 100530
04:00+24ю118712 0.0 100528
07:00+27ююз11724 0.1 1007153
10:00+34св22480 0.0 1007959
13:00+34св545224 0.0 1004943
16:00+31в226786 0.2 100399
19:00+28юз118161 0.3 100517
22:00+26ю23840 0.0 100652
16 мая, вс
вс1601:00+26ююв118317 0.0 100525
04:00+25ю118051 0.0 100424
07:00+29ю116591 0.0 1007156
10:00+35св324630 0.0 10061082
13:00+34св545220 0.0 1005925
16:00+34всв44515 0.0 1003965
19:00+29всв127427 0.0 100527
22:00+27ю11817 0.0 100717
17 мая, пн
пн1701:00+26ююв11839 0.0 100622
04:00+25ю11835 0.0 100527
07:00+29ююв116616 0.0 1007191
10:00+36всв32466 0.0 10071057
13:00+35св54485 0.0 10051133
16:00+34всв565138 0.0 1003834
19:00+28в248139 0.0 100583
22:00+26ю1286100 0.0 100732
18 мая, вт
вт1801:00+25юз008923 0.0 100619
04:00+25зюз11916 0.0 100621
07:00+28ю117592 0.0 1007235
10:00+34св325371 0.0 10081033
13:00+33св546099 0.0 1005649
16:00+33в5558100 0.0 1004825
19:00+28в3481100 0.0 1005103
22:00+25ю229147 0.8 100744